Location: ??????????
(48.4699°N, 37.9573°E)
Time: 12:34:52
(UTC+00:00)

ATLAS 5 CENTAUR R/B - Pass Details

Date: 20 January 2021
Orbit: 511 x 1147 km, 63.3° (Epoch: 16 February)

Event Time Altitude Azimuth Distance (km) Brightness Sun altitude
Rises 15:14:10 0° 227° (SW) 2,649 6.1 -10.8°
Reaches altitude 10° 15:16:15 10° 230° (SW) 1,800 5.1 -11.1°
Maximum altitude 15:20:13 69° 314° (NW) 630 1.7 -11.8°
Enters shadow 15:24:25 12° 38° (NE) 1,916 3.6 -12.4°
